Weather History for Wahoo, NE

Change the Weather History Date:

Monday, October 7, 2013

  Actual Average Record
Temperature  
Mean Temperature 60 °F -  
Max Temperature 76 °F 69 °F 88 °F (1963)
Min Temperature 43 °F 41 °F 20 °F (2012)
Degree Days  
Heating Degree Days 6    
Growing Degree Days 10 (Base 50)    
Moisture  
Dew Point 38 °F    
Average Humidity 53    
Maximum Humidity 78    
Minimum Humidity 23    
Precipitation  
Precipitation 0.00 in - - ()
Sea Level Pressure  
Sea Level Pressure 30.03 in    
Wind  
Wind Speed 8 mph (SW)    
Max Wind Speed 15 mph    
Max Gust Speed 22 mph    
Visibility 10 miles    
Events      
Averages and records for this station are not official NWS values.
T = Trace of Precipitation, MM = Missing Value Source: NWS Daily Summary

Daily Weather History Graph

Daily Weather History Graph

Search for Another Location

Airport:

Trip Planner

Search our weather history database for the weather conditions in past years. The results will help you decide how hot, cold, wet, or windy it might be!

Date:

Astronomy

Oct. 07, 2013 Rise Set
Actual Time 7:29 AM CDT 6:57 PM CDT
Civil Twilight 7:02 AM CDT 7:25 PM CDT
Nautical Twilight 6:30 AM CDT 7:57 PM CDT
Astronomical Twilight 5:58 AM CDT 8:29 PM CDT
Moon 10:22 AM CDT (10/7) 8:41 PM CDT (10/7)
Length of Visible Light 12h 23m
Length of Day
11h 28m
Waxing Crescent, 9% of the Moon is Illuminated
Oct 7
Waxing Crescent
Oct 11
First Quarter
Oct 18
Full
Oct 26
Last Quarter
Nov 3
New

Hourly Weather History & Observations

Time (CDT) Temp. Windchill Dew Point Humidity Pressure Visibility Wind Dir Wind Speed Gust Speed Precip Events Conditions
12:15 AM 50.5 °F - 36.5 °F 59% 30.02 in 10.0 mi NW 9.2 mph - N/A   Clear
12:35 AM 50.5 °F - 36.9 °F 59% 30.02 in 10.0 mi NW 9.2 mph - N/A   Clear
12:55 AM 50.5 °F - 36.9 °F 59% 30.02 in 10.0 mi NW 10.4 mph - N/A   Clear
1:15 AM 49.8 °F - 36.9 °F 61% 30.02 in 10.0 mi NW 8.1 mph - N/A   Clear
1:35 AM 49.1 °F - 37.8 °F 65% 30.02 in 10.0 mi NW 8.1 mph - N/A   Clear
1:55 AM 48.0 °F - 38.3 °F 69% 30.02 in 10.0 mi NNW 5.8 mph - N/A   Clear
2:15 AM 47.3 °F - 38.5 °F 71% 30.03 in 10.0 mi NW 8.1 mph - N/A   Clear
2:35 AM 48.2 °F - 39.2 °F 71% 30.04 in 10.0 mi NW 6.9 mph - N/A   Clear
2:55 AM 47.1 °F - 39.2 °F 74% 30.04 in 10.0 mi NW 6.9 mph - N/A   Clear
3:15 AM 46.8 °F - 39.4 °F 75% 30.04 in 10.0 mi WNW 5.8 mph - N/A   Clear
3:35 AM 47.7 °F - 39.4 °F 73% 30.03 in 10.0 mi WNW 6.9 mph - N/A   Clear
3:55 AM 47.3 °F - 39.4 °F 74% 30.03 in 10.0 mi WNW 6.9 mph - N/A   Clear
4:15 AM 47.7 °F - 39.0 °F 72% 30.04 in 10.0 mi WNW 8.1 mph - N/A   Clear
4:35 AM 47.3 °F - 38.5 °F 71% 30.04 in 10.0 mi WNW 6.9 mph - N/A   Clear
4:55 AM 47.3 °F - 37.8 °F 69% 30.04 in 10.0 mi WNW 5.8 mph - N/A   Clear
5:15 AM 45.7 °F 44.4 °F 37.4 °F 73% 30.04 in 10.0 mi WNW 3.5 mph - N/A   Clear
5:35 AM 45.9 °F 42.3 °F 37.8 °F 73% 30.04 in 10.0 mi West 6.9 mph - N/A   Clear
5:55 AM 45.1 °F 42.0 °F 37.6 °F 75% 30.04 in 10.0 mi West 5.8 mph - N/A   Clear
6:15 AM 45.1 °F 42.0 °F 37.4 °F 74% 30.05 in 10.0 mi West 5.8 mph - N/A   Clear
6:35 AM 44.6 °F 42.2 °F 37.4 °F 76% 30.05 in 10.0 mi WSW 4.6 mph - N/A   Clear
6:55 AM 44.6 °F 40.2 °F 37.2 °F 75% 30.05 in 10.0 mi West 8.1 mph - N/A   Clear
7:15 AM 45.1 °F 40.8 °F 36.9 °F 73% 30.05 in 10.0 mi West 8.1 mph - N/A   Clear
7:35 AM 46.0 °F 43.1 °F 36.7 °F 70% 30.05 in 10.0 mi West 5.8 mph - N/A   Clear
7:55 AM 43.7 °F - 37.2 °F 78% 30.06 in 10.0 mi Calm Calm - N/A   Clear
8:15 AM 45.1 °F 42.8 °F 37.8 °F 75% 30.06 in 10.0 mi SW 4.6 mph - N/A   Clear
8:35 AM 46.0 °F 43.9 °F 37.9 °F 73% 30.07 in 10.0 mi WSW 4.6 mph - N/A   Clear
8:55 AM 47.1 °F - 38.5 °F 72% 30.07 in 10.0 mi WSW 4.6 mph - N/A   Clear
9:15 AM 49.5 °F - 39.4 °F 68% 30.07 in 10.0 mi WSW 4.6 mph - N/A   Clear
9:35 AM 52.0 °F - 40.1 °F 64% 30.08 in 10.0 mi West 3.5 mph - N/A   Clear
9:55 AM 54.5 °F - 40.8 °F 60% 30.08 in 10.0 mi SW 4.6 mph - N/A   Clear
10:15 AM 56.5 °F - 40.8 °F 56% 30.08 in 10.0 mi SSW 3.5 mph - N/A   Clear
10:35 AM 61.5 °F - 38.5 °F 43% 30.08 in 10.0 mi SW 8.1 mph - N/A   Clear
10:55 AM 64.4 °F - 37.6 °F 37% 30.08 in 10.0 mi WSW 9.2 mph - N/A   Clear
11:15 AM 66.9 °F - 34.0 °F 30% 30.08 in 10.0 mi SW 11.5 mph - N/A   Clear
11:35 AM 67.8 °F - 33.1 °F 28% 30.08 in 10.0 mi SW 9.2 mph 16.1 mph N/A   Clear
11:55 AM 68.7 °F - 32.5 °F 26% 30.08 in 10.0 mi WSW 11.5 mph - N/A   Clear
12:15 PM 69.8 °F - 32.9 °F 26% 30.07 in 10.0 mi SW 12.7 mph 19.6 mph N/A   Clear
12:35 PM 70.5 °F - 33.8 °F 26% 30.07 in 10.0 mi WSW 10.4 mph 18.4 mph N/A   Clear
12:55 PM 71.2 °F - 34.2 °F 26% 30.06 in 10.0 mi WSW 11.5 mph 17.3 mph N/A   Clear
1:15 PM 71.6 °F - 32.7 °F 24% 30.06 in 10.0 mi WSW 15.0 mph 21.9 mph N/A   Clear
1:35 PM 73.4 °F - 34.7 °F 24% 30.04 in 10.0 mi WSW 10.4 mph 17.3 mph N/A   Clear
1:55 PM 73.0 °F - 34.0 °F 24% 30.04 in 10.0 mi WSW 8.1 mph 17.3 mph N/A   Clear
2:15 PM 74.1 °F - 35.1 °F 24% 30.02 in 10.0 mi SW 11.5 mph 17.3 mph N/A   Clear
2:35 PM 74.8 °F - 35.2 °F 24% 30.02 in 10.0 mi WSW 6.9 mph 17.3 mph N/A   Clear
2:55 PM 75.4 °F - 36.3 °F 24% 30.01 in 10.0 mi SW 10.4 mph 16.1 mph N/A   Clear
3:15 PM 75.6 °F - 35.4 °F 23% 30.01 in 10.0 mi SSW 11.5 mph - N/A   Clear
3:35 PM 76.1 °F - 35.6 °F 23% 30.00 in 10.0 mi SW 10.4 mph 16.1 mph N/A   Clear
3:55 PM 76.1 °F - 36.3 °F 24% 30.00 in 10.0 mi SW 12.7 mph 17.3 mph N/A   Clear
4:15 PM 76.1 °F - 35.8 °F 23% 29.99 in 10.0 mi SW 10.4 mph 18.4 mph N/A   Clear
4:35 PM 76.1 °F - 36.5 °F 24% 29.99 in 10.0 mi SW 9.2 mph - N/A   Clear
4:55 PM 76.1 °F - 35.6 °F 23% 29.98 in 10.0 mi SW 9.2 mph - N/A   Clear
5:15 PM 75.9 °F - 35.6 °F 23% 29.98 in 10.0 mi SW 12.7 mph 18.4 mph N/A   Clear
5:35 PM 75.2 °F - 36.7 °F 25% 29.98 in 10.0 mi SW 9.2 mph - N/A   Clear
5:55 PM 74.3 °F - 37.0 °F 26% 29.98 in 10.0 mi SSW 8.1 mph - N/A   Clear
6:15 PM 71.8 °F - 39.7 °F 31% 29.98 in 10.0 mi SSW 6.9 mph - N/A   Clear
6:35 PM 68.4 °F - 41.0 °F 37% 29.98 in 10.0 mi South 8.1 mph - N/A   Clear
6:55 PM 64.9 °F - 41.5 °F 42% 29.98 in 10.0 mi South 8.1 mph - N/A   Clear
7:15 PM 61.9 °F - 42.4 °F 49% 29.98 in 10.0 mi South 5.8 mph - N/A   Clear
7:35 PM 59.7 °F - 41.9 °F 52% 29.98 in 10.0 mi South 6.9 mph - N/A   Clear
7:55 PM 57.2 °F - 42.3 °F 57% 29.98 in 10.0 mi South 6.9 mph - N/A   Clear
8:15 PM 56.1 °F - 42.4 °F 60% 29.99 in 10.0 mi South 6.9 mph - N/A   Clear
8:35 PM 54.9 °F - 42.3 °F 63% 29.99 in 10.0 mi South 8.1 mph - N/A   Clear
8:55 PM 55.2 °F - 42.4 °F 62% 29.99 in 10.0 mi SSE 8.1 mph - N/A   Clear
9:15 PM 54.1 °F - 42.1 °F 64% 29.99 in 10.0 mi South 8.1 mph - N/A   Clear
9:35 PM 53.1 °F - 42.4 °F 67% 30.00 in 10.0 mi South 8.1 mph - N/A   Clear
9:55 PM 52.9 °F - 42.6 °F 68% 30.00 in 10.0 mi South 6.9 mph - N/A   Clear
10:15 PM 51.8 °F - 42.1 °F 69% 30.00 in 10.0 mi South 8.1 mph - N/A   Clear
10:35 PM 51.4 °F - 41.9 °F 70% 30.00 in 10.0 mi SSE 9.2 mph - N/A   Clear
10:55 PM 50.5 °F - 41.5 °F 71% 29.99 in 10.0 mi SSE 9.2 mph - N/A   Clear
11:15 PM 49.8 °F - 41.4 °F 73% 29.99 in 10.0 mi SSE 6.9 mph - N/A   Clear
11:35 PM 49.5 °F - 41.2 °F 73% 29.99 in 10.0 mi South 5.8 mph - N/A   Clear
11:55 PM 48.6 °F - 41.2 °F 76% 29.99 in 10.0 mi South 5.8 mph - N/A   Clear